This is the latest recevied weather packets stored in our database for station/object IZ5MMH-1. If no packets are shown the sender has not sent any weather packets the latest 10 day(s).
| Time | Temp. | Humidity | Pressure | Rain* | Wind** | Luminosity | Snow |
|---|---|---|---|---|---|---|---|
| 1787766290 | 30° C | 51% | 1016.6 hPa | - | - | - | - |
| 1787765689 | 30.56° C | 49% | 1016.1 hPa | - | - | - | - |
| 1787765090 | 30.56° C | 47% | 1016.1 hPa | - | - | - | - |
| 1787764490 | 31.11° C | 47% | 1016.4 hPa | - | - | - | - |
| 1787763889 | 31.11° C | 45% | 1016.2 hPa | - | - | - | - |
| 1787763289 | 31.67° C | 46% | 1016 hPa | - | - | - | - |
| 1787762688 | 31.67° C | 45% | 1016.2 hPa | - | - | - | - |
| 1787762090 | 32.22° C | 45% | 1016.2 hPa | - | - | - | - |
| 1787761488 | 31.67° C | 46% | 1016.3 hPa | - | - | - | - |
| 1787760889 | 31.67° C | 45% | 1016.5 hPa | - | - | - | - |
| 1787760288 | 32.22° C | 45% | 1016.5 hPa | - | - | - | - |
| 1787759688 | 32.78° C | 43% | 1016.6 hPa | - | - | - | - |
| 1787759088 | 33.33° C | 42% | 1016.8 hPa | - | - | - | - |
| 1787758488 | 33.33° C | 41% | 1016.7 hPa | - | - | - | - |
| 1787757889 | 33.89° C | 40% | 1016.6 hPa | - | - | - | - |
| 1787757289 | 34.44° C | 41% | 1016.5 hPa | - | - | - | - |
| 1787756689 | 34.44° C | 41% | 1016.6 hPa | - | - | - | - |
| 1787756088 | 34.44° C | 40% | 1016.4 hPa | - | - | - | - |
| 1787755488 | 34.44° C | 41% | 1016.4 hPa | - | - | - | - |
| 1787754889 | 34.44° C | 40% | 1016.6 hPa | - | - | - | - |
| 1787754289 | 35° C | 39% | 1016.5 hPa | - | - | - | - |
| 1787753688 | 35° C | 41% | 1016.4 hPa | - | - | - | - |
| 1787753088 | 35° C | 39% | 1016.3 hPa | - | - | - | - |
| 1787752488 | 35.56° C | 40% | 1016.3 hPa | - | - | - | - |
| 1787751888 | 35.56° C | 41% | 1016.3 hPa | - | - | - | - |
* Rain since midnight (hover to see other rain measurements)
** Current wind speed in m/s (hover to see current wind gust speed)